This demonstration page uses our WeatherBlox Daily Observations layout. Learn more.

Left ArrowRight Arrow

47.50024, -111.30081

Hourly Observations for April 4, 2018

Temp ( °F °C ) Dew Point ( °F °C ) Humidity (%) Winds ( mph kmh ) Pressure ( in mb ) Visibility ( mi km ) Precip ( " mm )
12:53 am 00:53 Cloudy 29 -1.7 25 -3.9 85 85 S 3 6 30.01 1016 10 16 0.00 0.00
1:53 am 01:53 Cloudy 29 -1.7 25 -3.9 85 85 Calm 30.00 1016 10 16 0.00 0.00
2:53 am 02:53 Cloudy 29 -1.7 27 -2.8 92 92 SE 3 6 29.98 1015 9 14 0.00 0.00
3:53 am 03:53 Cloudy 28 -2.2 26 -3.3 92 92 ESE 5 7 29.98 1015 9 14 0.00 0.00
4:53 am 04:53 Cloudy 27 -2.8 26 -3.3 96 96 E 6 9 29.99 1016 10 16 0.00 0.00
5:53 am 05:53 Cloudy 27 -2.8 25 -3.9 92 92 SE 3 6 30.00 1016 10 16 0.00 0.00
6:53 am 06:53 Cloudy 30 -1.1 24 -4.4 79 79 SSE 3 6 30.01 1016 10 16 0.00 0.00
7:53 am 07:53 Cloudy 30 -1.1 25 -3.9 82 82 SSE 6 9 30.02 1017 10 16 0.00 0.00
8:53 am 08:53 Cloudy 33 0.6 26 -3.3 75 75 SSE 5 7 30.04 1017 10 16 0.00 0.00
9:53 am 09:53 Sunny 36 2.2 25 -3.9 64 64 SW 6 9 30.03 1017 10 16 0.00 0.00
10:53 am 10:53 Sunny 37 2.8 26 -3.3 65 65 WSW 9 15 30.04 1017 10 16 0.00 0.00
11:53 am 11:53 Sunny 41 5 27 -2.8 57 57 VRB 5 7 30.02 1017 10 16 0.00 0.00
12:53 pm 12:53 Partly Cloudy 42 5.6 23 -5 47 47 SE 3 6 30.01 1016 10 16 0.00 0.00
1:53 pm 13:53 Cloudy 44 6.7 24 -4.4 45 45 SW 3 6 29.98 1015 10 16 0.00 0.00
2:53 pm 14:53 Cloudy 46 7.8 26 -3.3 46 46 WSW 10 17 29.97 1015 10 16 0.00 0.00
3:53 pm 15:53 Cloudy 48 8.9 26 -3.3 42 42 WSW 12 19 29.96 1015 10 16 0.00 0.00
4:53 pm 16:53 Mostly Cloudy 48 8.9 24 -4.4 39 39 W 18 30 29.96 1015 10 16 0.00 0.00
5:53 pm 17:53 Partly Cloudy 46 7.8 23 -5 40 40 WNW 14 22 29.99 1016 10 16 0.00 0.00
6:53 pm 18:53 Mostly Cloudy 43 6.1 27 -2.8 53 53 N 6 9 30.00 1016 10 16 0.00 0.00
7:53 pm 19:53 Mostly Sunny 40 4.4 28 -2.2 63 63 NNE 7 11 30.02 1017 10 16 0.00 0.00
8:53 pm 20:53 Partly Cloudy 37 2.8 28 -2.2 70 70 ENE 7 11 30.04 1017 10 16 0.00 0.00
9:53 pm 21:53 Cloudy 39 3.9 26 -3.3 60 60 Calm 30.04 1017 10 16 0.00 0.00
10:53 pm 22:53 Cloudy 36 2.2 27 -2.8 70 70 NNE 6 9 30.07 1018 10 16 0.00 0.00
11:31 pm 23:31 Windy with Snow Likely 23 -5 20 -6.7 88 88 N 28 44 30.21 1023 7 11 0.00 0.03
11:53 pm 23:53 Cloudy 21 -6.1 18 -7.8 88 88 NNW 24 39 30.17 1022 9 14 0.00 0.03

Powered by AerisWeather